Tracking 31027 objects as of 19-Jul-2025
HD Live streaming from Space Station
objects crossing your sky now

COSMOS 2251 DEB

Track COSMOS 2251 DEB now!
10-day predictions


NORAD ID: 34610
Int'l Code: 1993-036WF
Perigee: 746.0 km
Apogee: 1,015.0 km
Inclination: 74.0 °
Period: 102.4 minutes
Semi major axis: 7251 km
RCS: 0.0054 m2 (small)
Launch date: June 16, 1993
Source: Commonwealth of Independent States (former USSR) (CIS)
Launch site: PLESETSK MISSILE AND SPACE COMPLEX (PKMTR)

Note: This is SATELLITE DEBRIS
Your satellite tracking list
ONEWEB-0142
Track 1 satellite(s)




NASA's NSSDC Master Catalog

Two Line Element Set (TLE):
1 34610U 93036WF  25199.31554925  .00002107  00000-0  11155-2 0  9990
2 34610  74.0192 160.5822 0185456 324.5513  34.3409 14.05924215834871
Source of the keplerian elements: AFSPC